Погода в Измаиле

Украина / Одесская область     45°21′03″N   28°50′10″E
темп.,
°C
ветер,
м/с
пор.,
м/с
влажн.,
%
обл.,
%
осадки,
мм/ч
давл.,
гПа
погр.,
м
5 марта, пт
пт523:00+10зюз5116030 0.0 1014216
02:00+8зюз246719 0.0 101340
05:00+7з22700 0.0 101223
08:00+8з24670 0.0 1012128
11:00+13зсз454420 0.0 1013461
14:00+16з343150 0.0 10121048
17:00+15зюз36362 0.0 1011392
20:00+11зюз474638 0.0 1013140
6 марта, сб
сб623:00+9сз6106655 0.0 1014344
02:00+6ссз4108029 0.0 1017593
05:00+5ссз597276 0.0 1019886
08:00+4ссв7106688 0.0 10231016
11:00+5ссв7952100 0.0 10251336
14:00+6с6734100 0.0 10261751
17:00+6с5731100 0.0 10271971
20:00+3с234452 0.0 102972
7 марта, вс
вс723:00+2ссз22530 0.0 103124
02:00+1ссз23570 0.0 103142
05:000ссз12640 0.0 103021
08:00+1ююз11570 0.0 1030126
11:00+6зюз57370 0.0 10281507
14:00+8зюз68340 0.0 10251683
17:00+7зюз68360 0.0 10231476
20:00+4ююз36530 0.0 1022136
8 марта, пн
пн823:00+3юз485913 0.0 1021202
02:00+2ююз497433 0.0 1020223
05:00+1юз36770 0.0 1018147
08:00+3зюз25710 0.0 1018265
11:00+7з235160 0.0 1018711
14:00+10зюз453955 0.0 10161269
17:00+9ююз4541100 0.0 10141221
20:00+6ю236096 0.0 101544
9 марта, вт
вт923:00+6юз2355100 0.0 101528
02:00+4зсз235897 0.0 101541
05:00+3с5106899 0.0 1016266
08:00+3ссв696388 0.0 1018553
11:00+6ссв675367 0.0 1020943
14:00+7ссв563683 0.0 10191258
17:00+7ссв4541100 0.0 10191448
20:00+4св4844100 0.0 1021405